Flag for France Weather past 2 weeks in Gustavia, Saint Barthélemy, France

Now
81 °F

Passing clouds.


Feels Like: 83 °F
Forecast: 79 / 81 °F
Wind: 10 mph from East

Location: Juliana Airport - Saint Maarten

Current Time: Dec 19, 2014 at 10:34:59 AM

Latest Report: Dec 19, 2014 at 10:00 AM


Visibility: N/A

Pressure: 30.01 "Hg

Humidity: 66%

Dew point: 68 °F

Location of GustaviaLocation

Historic Weather in Gustavia — Graph

°F

Gustavia temperature yesterday

Maximum temperature yesterday: 81 °F (at 12:01 PM)
Minimum temperature yesterday: 73 °F (at 4:00 AM)
Average temperature yesterday: 78 °F

Past Weeks' High & Low Weather Summary

 TemperatureHumidityPressure
High86 °F (Dec 14, 12:00 PM)94% (Dec 16, 6:00 PM)30.07 "Hg (Dec 16, 6:00 PM)
Low73 °F (Dec 18, 4:00 AM)62% (Dec 7, 9:00 AM)29.80 "Hg (Dec 6, 2:00 PM)
Average80 °F75%29.94 "Hg
* Reported Dec 4 9:00 AM — Dec 19 9:00 AM, Gustavia, Weather by CustomWeather, © 2014

Note: Actual official high and low records may vary slightly from our data, if they occured in-between our weather recording intervals... More about our weather records

Advertising

Gustavia weather history for previous 24 hours

 ConditionsComfort  
Time TempWeatherWind HumidityBarometerVisibility
9:00 AM
Dec 19
81 °FPassing clouds.10 mph66%30.01 "HgN/A
8:00 AM81 °FScattered clouds.7 mph62%29.98 "HgN/A
7:00 AM79 °FScattered clouds.8 mph65%29.95 "HgN/A
6:00 AM77 °FPassing clouds.9 mph69%29.92 "HgN/A
5:00 AM77 °FPassing clouds.10 mph74%29.92 "HgN/A
4:00 AM77 °FPassing clouds.10 mph69%29.92 "HgN/A
3:00 AM79 °FPassing clouds.10 mph65%29.92 "HgN/A
2:00 AM79 °FPassing clouds.12 mph65%29.95 "HgN/A
1:00 AM79 °FPassing clouds.13 mph65%29.98 "HgN/A
12:00 AM79 °FPassing clouds.12 mph65%29.98 "HgN/A
11:00 PM
Dec 18
79 °FPassing clouds.12 mph70%29.98 "HgN/A
10:00 PM79 °FPassing clouds.13 mph70%29.98 "HgN/A
9:00 PM79 °FPassing clouds.14 mph70%29.98 "HgN/A
8:00 PM79 °FPassing clouds.13 mph70%29.98 "HgN/A
7:00 PM79 °FPassing clouds.15 mph65%29.98 "HgN/A
6:00 PM79 °FPassing clouds.13 mph65%29.95 "HgN/A
5:00 PM81 °FScattered clouds.13 mph66%29.95 "HgN/A
4:00 PM81 °FScattered clouds.12 mph66%29.95 "HgN/A
3:00 PM81 °FScattered clouds.13 mph70%29.95 "HgN/A
2:00 PM81 °FScattered clouds.8 mph70%29.95 "HgN/A
1:00 PM81 °FBroken clouds.12 mph74%29.98 "HgN/A
12:01 PM81 °FWarm.37 mph66%30.01 "HgN/A
11:00 AM79 °FScattered showers. Broken clouds.13 mph74%30.04 "HgN/A
10:00 AM79 °FPartly sunny.10 mph70%30.04 "HgN/A
Weather by CustomWeather, © 2014

See weather overviewHow to use our weather pages